Tracking 27079 objects as of 23-Mar-2023
HD Live streaming from Space Station
objects crossing your sky now

GALAXY 3R

Track GALAXY 3R now!
GALAXY 3R is classified as:


NORAD ID: 23741
Int'l Code: 1995-069A
Perigee: 35,766.6 km
Apogee: 35,819.8 km
Inclination: 12.2 °
Period: 1,436.1 minutes
Semi major axis: 42164 km
RCS: 12.3125 m2 (large)
Launch date: December 15, 1995
Source: United States (US)
Launch site: AIR FORCE EASTERN TEST RANGE (AFETR)

24 C-band, 16 Ku-band; North America, Caribbean; 140 television channels.
Your satellite tracking list
Your tracking list is empty




NASA's NSSDC Master Catalog

Two Line Element Set (TLE):
1 23741U 95069A   23081.46526446  .00000056  00000-0  00000-0 0  9998
2 23741  12.1630  24.3968 0006317  45.1031 142.3083  1.00273729 99959
Source of the keplerian elements: AFSPC